Location: Conflandey
(47.7287°N, 6.0456°E)
Time: 03:19:46
(UTC+00:00)

CZ-4 R/B - Pass Details

Date: 24 October 2021
Orbit: 531 x 595 km, 97.8° (Epoch: 28 November)

Event Time Altitude Azimuth Distance (km) Brightness Sun altitude
Exits shadow 19:37:10 - 214° (SSW) 2,729 5.0 -31.7°
Reaches altitude 10° 19:40:14 10° 241° (WSW) 1,870 4.5 -32.2°
Maximum altitude 19:42:17 14° 271° (W) 1,664 4.5 -32.5°
Drops below altitude 10° 19:44:22 10° 302° (WNW) 1,897 4.9 -32.8°
Sets 19:47:35 0° 329° (NNW) 2,817 5.6 -33.3°
